• In Deutschland
  • Länderverzeichnis
  • Für 7 Tage
  • Wassertemperatur
  • Satellitenkarten
  • Wetterkarte
  • Widgets
  • user-avatar
    Anmelden

    Stündliche Wetter Butzbach

    Heute, 23 September, Sonntag

    Zeit Temperatur Niederschläge Wind Luftdruck Luftfeuchtigkeit
    00:00 +12°C° 0.3 mm 2 m/S 745 mmHg 87%
    01:00 +12°C° 0.3 mm 2 m/S 745 mmHg 89%
    02:00 +12°C° 0.6 mm 2 m/S 744 mmHg 89%
    03:00 +12°C° 0.6 mm 2 m/S 743 mmHg 90%
    04:00 +12°C° 0.6 mm 2 m/S 742 mmHg 91%
    05:00 +12°C° 0.7 mm 2 m/S 742 mmHg 92%
    06:00 +12°C° 0.7 mm 2 m/S 741 mmHg 92%
    07:00 +12°C° 0.7 mm 2 m/S 740 mmHg 93%
    08:00 +13°C° 1.2 mm 2 m/S 740 mmHg 93%
    09:00 +13°C° 1.2 mm 2 m/S 740 mmHg 94%
    10:00 +14°C° 1.2 mm 2 m/S 739 mmHg 95%
    11:00 +15°C° 1.7 mm 2 m/S 739 mmHg 94%
    12:00 +15°C° 1.7 mm 2 m/S 738 mmHg 94%
    13:00 +16°C° 1.7 mm 3 m/S 738 mmHg 94%
    14:00 +15°C° 2.2 mm 5 m/S 737 mmHg 91%
    15:00 +15°C° 2.2 mm 7 m/S 737 mmHg 89%
    16:00 +16°C° 2.2 mm 9 m/S 736 mmHg 87%
    17:00 +14°C° 1.9 mm 7 m/S 737 mmHg 88%
    18:00 +10°C° 1.9 mm 5 m/S 738 mmHg 89%
    19:00 +8°C° 1.9 mm 4 m/S 739 mmHg 90%
    20:00 +8°C° 0.4 mm 4 m/S 741 mmHg 90%
    21:00 +8°C° 0.4 mm 4 m/S 742 mmHg 90%
    22:00 +8°C° 0.4 mm 5 m/S 744 mmHg 89%
    23:00 +8°C° 0.1 mm 4 m/S 745 mmHg 89%

    Morgen, 24 September, Montag

    Zeit Temperatur Niederschläge Wind Luftdruck Luftfeuchtigkeit
    00:00 +8°C° 0.1 mm 4 m/S 747 mmHg 89%
    01:00 +7°C° 0.1 mm 4 m/S 748 mmHg 89%
    02:00 +8°C° 0 mm 3 m/S 749 mmHg 90%
    03:00 +7°C° 0 mm 3 m/S 750 mmHg 90%
    04:00 +7°C° 0 mm 3 m/S 751 mmHg 91%
    05:00 +7°C° 0 mm 3 m/S 752 mmHg 91%
    06:00 +7°C° 0 mm 3 m/S 753 mmHg 90%
    07:00 +5°C° 0 mm 3 m/S 753 mmHg 90%
    08:00 +8°C° 0 mm 3 m/S 754 mmHg 82%
    09:00 +10°C° 0 mm 3 m/S 754 mmHg 73%
    10:00 +11°C° 0 mm 4 m/S 755 mmHg 65%
    11:00 +12°C° 0 mm 4 m/S 755 mmHg 60%
    12:00 +13°C° 0 mm 4 m/S 755 mmHg 55%
    13:00 +14°C° 0 mm 5 m/S 755 mmHg 50%
    14:00 +14°C° 0 mm 4 m/S 755 mmHg 51%
    15:00 +14°C° 0 mm 4 m/S 755 mmHg 52%
    16:00 +14°C° 0 mm 4 m/S 755 mmHg 53%
    17:00 +12°C° 0 mm 3 m/S 756 mmHg 61%
    18:00 +10°C° 0 mm 3 m/S 756 mmHg 69%
    19:00 +9°C° 0 mm 2 m/S 756 mmHg 77%
    20:00 +8°C° 0 mm 2 m/S 757 mmHg 79%
    21:00 +8°C° 0 mm 1 m/S 757 mmHg 82%
    22:00 +8°C° 0 mm 1 m/S 758 mmHg 84%
    23:00 +7°C° 0 mm 1 m/S 758 mmHg 85%

    übermorgen, 25 September, Dienstag

    Zeit Temperatur Niederschläge Wind Luftdruck Luftfeuchtigkeit
    00:00 +7°C° 0 mm 1 m/S 758 mmHg 86%
    01:00 +7°C° 0 mm 1 m/S 758 mmHg 87%
    02:00 +6°C° 0 mm 1 m/S 759 mmHg 87%
    03:00 +6°C° 0 mm 1 m/S 759 mmHg 88%
    04:00 +6°C° 0 mm 1 m/S 759 mmHg 88%
    05:00 +6°C° 0 mm 1 m/S 759 mmHg 88%
    06:00 +6°C° 0 mm 1 m/S 759 mmHg 87%
    07:00 +6°C° 0 mm 1 m/S 759 mmHg 86%
    08:00 +8°C° 0 mm 1 m/S 760 mmHg 76%
    09:00 +9°C° 0 mm 2 m/S 760 mmHg 67%
    10:00 +12°C° 0 mm 2 m/S 760 mmHg 57%
    11:00 +13°C° 0 mm 2 m/S 760 mmHg 52%
    12:00 +14°C° 0 mm 2 m/S 760 mmHg 48%
    13:00 +15°C° 0 mm 2 m/S 759 mmHg 43%
    14:00 +14°C° 0 mm 3 m/S 759 mmHg 44%
    15:00 +14°C° 0 mm 3 m/S 758 mmHg 45%
    16:00 +14°C° 0 mm 3 m/S 758 mmHg 46%
    17:00 +13°C° 0 mm 2 m/S 758 mmHg 53%
    18:00 +12°C° 0 mm 2 m/S 758 mmHg 60%
    19:00 +9°C° 0 mm 2 m/S 758 mmHg 67%
    20:00 +8°C° 0 mm 2 m/S 758 mmHg 69%
    21:00 +7°C° 0 mm 2 m/S 758 mmHg 70%
    22:00 +7°C° 0 mm 2 m/S 758 mmHg 72%
    23:00 +6°C° 0 mm 2 m/S 758 mmHg 71%

    26 September, Mittwoch

    Zeit Temperatur Niederschläge Wind Luftdruck Luftfeuchtigkeit
    00:00 +6°C° 0 mm 2 m/S 758 mmHg 71%
    01:00 +6°C° 0 mm 1 m/S 757 mmHg 70%
    02:00 +6°C° 0 mm 1 m/S 757 mmHg 70%
    03:00 +6°C° 0 mm 1 m/S 757 mmHg 70%
    04:00 +6°C° 0 mm 1 m/S 756 mmHg 71%
    05:00 +6°C° 0 mm 1 m/S 756 mmHg 71%
    06:00 +6°C° 0 mm 1 m/S 756 mmHg 71%
    07:00 +5°C° 0 mm 1 m/S 756 mmHg 71%
    08:00 +8°C° 0 mm 1 m/S 756 mmHg 64%
    09:00 +10°C° 0 mm 1 m/S 756 mmHg 56%
    10:00 +13°C° 0 mm 2 m/S 756 mmHg 48%
    11:00 +14°C° 0 mm 2 m/S 756 mmHg 44%
    12:00 +16°C° 0 mm 2 m/S 755 mmHg 41%
    13:00 +18°C° 0 mm 2 m/S 755 mmHg 37%
    14:00 +19°C° 0 mm 1 m/S 755 mmHg 37%
    15:00 +19°C° 0 mm 1 m/S 754 mmHg 38%
    16:00 +19°C° 0 mm 1 m/S 754 mmHg 38%
    17:00 +16°C° 0 mm 1 m/S 754 mmHg 44%
    18:00 +14°C° 0 mm 1 m/S 754 mmHg 50%
    19:00 +11°C° 0 mm 0 m/S 754 mmHg 56%
    20:00 +10°C° 0 mm 0 m/S 754 mmHg 57%
    21:00 +11°C° 0 mm 1 m/S 754 mmHg 57%
    22:00 +10°C° 0 mm 1 m/S 754 mmHg 58%
    23:00 +9°C° 0 mm 0 m/S 754 mmHg 60%

    27 September, Donnerstag

    Zeit Temperatur Niederschläge Wind Luftdruck Luftfeuchtigkeit
    00:00 +9°C° 0 mm 0 m/S 754 mmHg 61%
    01:00 +8°C° 0 mm 0 m/S 754 mmHg 63%
    02:00 +8°C° 0 mm 0 m/S 754 mmHg 64%
    03:00 +8°C° 0 mm 0 m/S 753 mmHg 65%
    04:00 +7°C° 0 mm 0 m/S 753 mmHg 67%
    05:00 +7°C° 0 mm 0 m/S 753 mmHg 67%
    06:00 +8°C° 0 mm 1 m/S 753 mmHg 68%
    07:00 +9°C° 0 mm 1 m/S 753 mmHg 69%
    08:00 +11°C° 0 mm 1 m/S 753 mmHg 62%
    09:00 +14°C° 0 mm 1 m/S 753 mmHg 55%
    10:00 +16°C° 0 mm 1 m/S 753 mmHg 48%
    11:00 +19°C° 0 mm 1 m/S 752 mmHg 45%
    12:00 +20°C° 0 mm 1 m/S 752 mmHg 41%
    13:00 +22°C° 0 mm 1 m/S 752 mmHg 37%
    14:00 +22°C° 0 mm 1 m/S 751 mmHg 38%
    15:00 +22°C° 0 mm 1 m/S 751 mmHg 39%
    16:00 +22°C° 0 mm 1 m/S 750 mmHg 41%
    17:00 +20°C° 0 mm 1 m/S 750 mmHg 46%
    18:00 +16°C° 0 mm 1 m/S 750 mmHg 52%
    19:00 +14°C° 0 mm 1 m/S 750 mmHg 58%
    20:00 +14°C° 0 mm 1 m/S 750 mmHg 60%
    21:00 +13°C° 0 mm 1 m/S 750 mmHg 61%
    22:00 +12°C° 0 mm 1 m/S 749 mmHg 63%
    23:00 +12°C° 0 mm 1 m/S 749 mmHg 64%

    28 September, Freitag

    Zeit Temperatur Niederschläge Wind Luftdruck Luftfeuchtigkeit
    00:00 +12°C° 0 mm 1 m/S 749 mmHg 66%
    01:00 +11°C° 0 mm 1 m/S 749 mmHg 68%
    02:00 +11°C° 0 mm 1 m/S 749 mmHg 70%
    03:00 +11°C° 0 mm 1 m/S 748 mmHg 73%
    04:00 +10°C° 0 mm 0 m/S 748 mmHg 75%
    05:00 +10°C° 0 mm 0 m/S 748 mmHg 76%
    06:00 +11°C° 0 mm 0 m/S 749 mmHg 77%
    07:00 +11°C° 0 mm 0 m/S 749 mmHg 79%
    08:00 +13°C° 0 mm 0 m/S 749 mmHg 77%
    09:00 +15°C° 0 mm 1 m/S 749 mmHg 74%
    10:00 +18°C° 0 mm 1 m/S 749 mmHg 72%
    11:00 +18°C° 0 mm 1 m/S 749 mmHg 74%
    12:00 +18°C° 0 mm 1 m/S 749 mmHg 75%
    13:00 +18°C° 0 mm 1 m/S 749 mmHg 76%
    14:00 +18°C° 0 mm 1 m/S 748 mmHg 76%
    15:00 +17°C° 0 mm 2 m/S 748 mmHg 77%
    16:00 +17°C° 0 mm 2 m/S 747 mmHg 77%
    17:00 +16°C° 0.1 mm 2 m/S 748 mmHg 82%
    18:00 +15°C° 0.1 mm 2 m/S 748 mmHg 86%
    19:00 +14°C° 0.1 mm 2 m/S 748 mmHg 90%
    20:00 +13°C° 0.1 mm 2 m/S 748 mmHg 90%
    21:00 +13°C° 0.1 mm 2 m/S 748 mmHg 90%
    22:00 +12°C° 0.1 mm 2 m/S 748 mmHg 90%
    23:00 +10°C° 0 mm 2 m/S 748 mmHg 90%
    Mehr zeigen